Terminal Aerodrome Forecast
Issued by NWS Cleveland, OH

Home | Current Version | Previous Version | Graphics & Text | Print | Product List | Glossary On
Versions: 1 2 3 4 5 6 7 8 9 10 11 12 13 14 15 16 17 18 19 20
521
FTUS41 KCLE 021946 AAA
TAFERI
TAF AMD
KERI 021946Z 0220/0318 28010G20KT P6SM SCT025 OVC035
      TEMPO 0220/0222 OVC025
     FM031000 29009KT P6SM OVC015
     FM031700 27010G15KT P6SM OVC015=

USA.gov is the U.S. government's official web portal to all federal, state and local government web resources and services.